Home   Weather   Eskilstuna   Past weeks

Flag for Sweden Past Weather in Eskilstuna, Sweden — Yesterday and Last 2 Weeks

46 °F

Partly sunny.

Feels Like: 41 °F
Forecast: 45 / 51 °F
Wind: 12 mph from Southwest

Location: Vasteras / Hasslo

Current Time: Oct 27, 2016 at 9:04:05 AM

Latest Report: Oct 27, 2016 at 8:20 AM

Visibility: N/A

Pressure: 30.01 "Hg

Humidity: 93%

Dew Point: 45 °F

Location of EskilstunaLocation

Past Weather in Eskilstuna — Graph


Eskilstuna Temperature Yesterday

Maximum temperature yesterday: 43 °F (at 3:50 PM)
Minimum temperature yesterday: 30 °F (at 8:20 AM)
Average temperature yesterday: 39 °F

High & Low Weather Summary for the Past Weeks

High50 °F (Oct 16, 1:50 PM)100% (Oct 26, 6:20 AM)30.57 "Hg (Oct 26, 6:20 AM)
Low30 °F (Oct 26, 8:20 AM)57% (Oct 20, 3:50 PM)30.01 "Hg (Oct 27, 4:20 AM)
Average43 °F79%30.37 "Hg
* Reported Oct 12 7:20 AM — Oct 27 7:50 AM, Eskilstuna, Weather by CustomWeather, © 2016

Note: Actual official high and low records may vary slightly from our data, if they occured in-between our weather recording intervals... More about our weather records


Eskilstuna Weather History for the Previous 24 Hours

Scroll right to see more
Time TempWeatherWind HumidityBarometerVisibility
7:50 AM
Thu, Oct 27
46 °FLow clouds.12 mph93%30.01 "HgN/A
7:20 AM46 °FPassing clouds.12 mph87%30.01 "HgN/A
6:50 AM46 °FFog.10 mph87%30.01 "Hg5 mi
6:20 AM46 °FPassing clouds.9 mph87%30.01 "HgN/A
5:50 AM45 °FPassing clouds.10 mph93%30.01 "HgN/A
5:20 AM45 °FLow clouds.13 mph93%30.01 "HgN/A
4:50 AM45 °FDrizzle. Low clouds.10 mph93%30.01 "Hg4 mi
4:20 AM45 °FDrizzle. Low clouds.13 mph87%30.01 "Hg4 mi
3:50 AM45 °FMostly cloudy.13 mph87%30.04 "HgN/A
3:20 AM45 °FMostly cloudy.15 mph87%30.04 "HgN/A
2:50 AM45 °FDrizzle. Low clouds.14 mph87%30.04 "Hg6 mi
2:20 AM43 °FPartly cloudy.13 mph93%30.04 "HgN/A
1:50 AM43 °FDrizzle. Low clouds.15 mph93%30.07 "HgN/A
1:20 AM43 °FDrizzle. Low clouds.15 mph87%30.07 "HgN/A
12:50 AM43 °FDrizzle. Low clouds.15 mph87%30.09 "HgN/A
12:20 AM43 °FPartly cloudy.13 mph87%30.09 "HgN/A
11:50 PM
Wed, Oct 26
43 °FDrizzle. Low clouds.14 mph87%30.09 "HgN/A
11:20 PM43 °FDrizzle. Low clouds.14 mph87%30.09 "HgN/A
10:50 PM43 °FOvercast.14 mph87%30.12 "HgN/A
10:20 PM43 °FPartly cloudy.14 mph87%30.12 "HgN/A
9:50 PM43 °FPassing clouds.15 mph87%30.12 "HgN/A
9:20 PM43 °FPartly cloudy.12 mph87%30.15 "HgN/A
8:50 PM43 °FPartly cloudy.12 mph87%30.15 "HgN/A
8:20 PM43 °FPartly cloudy.14 mph87%30.15 "HgN/A
7:50 PM43 °FClear.14 mph87%30.15 "Hg10 mi
7:20 PM43 °FPassing clouds.13 mph87%30.15 "HgN/A
6:50 PM43 °FPassing clouds.13 mph81%30.18 "HgN/A
6:20 PM43 °FPassing clouds.12 mph81%30.18 "HgN/A
5:50 PM43 °FPartly cloudy.12 mph81%30.18 "HgN/A
5:20 PM43 °FPartly cloudy.10 mph81%30.21 "HgN/A
4:50 PM43 °FPartly sunny.9 mph81%30.21 "HgN/A
4:20 PM43 °FPartly sunny.8 mph81%30.21 "HgN/A
3:50 PM43 °FScattered clouds.8 mph81%30.21 "HgN/A
3:20 PM41 °FSunny.7 mph87%30.21 "Hg10 mi
2:50 PM41 °FScattered clouds.6 mph81%30.24 "HgN/A
2:20 PM41 °FPartly sunny.6 mph81%30.24 "HgN/A
1:50 PM39 °FPartly sunny.6 mph87%30.24 "HgN/A
1:20 PM39 °FPartly sunny.7 mph87%30.24 "HgN/A
12:50 PM39 °FPartly sunny.6 mph87%30.24 "HgN/A
12:20 PM39 °FPartly sunny.6 mph87%30.24 "HgN/A
11:50 AM39 °FPartly sunny.6 mph87%30.27 "HgN/A
11:20 AM39 °FSunny.7 mph81%30.27 "Hg10 mi
10:50 AM37 °FPassing clouds.6 mph87%30.27 "HgN/A
10:20 AM36 °FClear.5 mph93%30.27 "HgN/A
9:50 AM36 °FPassing clouds.5 mph93%30.27 "HgN/A
9:20 AM34 °FSleet. Scattered clouds.3 mph93%30.27 "HgN/A
Weather by CustomWeather, © 2016

See weather overviewHow to use our weather pages